www.pogodaiklimat.ru

Погода и климат >> Архив погоды >> Россия >> Пермский край >> Усть-Черная


ПОГОДА в Усть-Черной

  • Прогноз погоды в Усть-Черной
  • Монитор погоды в Усть-Черной
  • Климат города

АРХИВ ПОГОДЫ в Усть-Черной

Время (UTC), дата Ветер
(напр.,м/с)
 
Видим.   Явления Облачность Т
(С)
Тd
(С)
f
(%)
Тe
(С)
Тes
(С)
Комфортность P
(гПа)
Po
(гПа)
Тmin
(С)
Tmax
(С)
R
(мм)
R24
(мм)
S
(см)
15 8.08 СЗ 2 50 км 10/0 2000 м
[Ac As]
+14.2 +8.4 68 +14 +14 1011.9 990.3 +15.8
18 8.08 СЗ 2 50 км 8/8 600 м
[Sc]
+12.0 +8.4 79 +11 +11 1013.5 991.7
21 8.08 З 1 50 км 3/3 600 м
[Sc diur, vesp]
+8.5 +6.9 90 +8 +8 1014.8 992.7
00 9.08 СЗ 2 50 км 10/10 600 м
[Sc]
+7.6 +6.8 95 +5 +5 1015.4 993.2
03 9.08 СЗ 1 50 км 10/10 600 м
[Sc]
+9.6 +8.0 90 +9 +9 1016.6 994.5 +7.3
06 9.08 СЗ 2 50 км 9/4 600 м
[Sc Ac trans Cc]
+14.3 +8.4 68 +14 +17 1017.4 995.6
09 9.08 С 3 50 км 10/10 600 м
[Sc]
+14.8 +6.3 57 +14 +14 1018.1 996.3
12 9.08 С 2 50 км 9/9 600 м
[Sc]
+15.2 +6.8 57 +15 +16 1018.4 996.7
15 9.08 З 1 50 км 8/8 600 м
[Sc]
+15.3 +8.2 63 +16 +16 1018.7 996.9 +16.2
18 9.08 З 2 50 км 8/4 600 м
[Sc Ci fib]
+10.6 +8.2 85 +9 +9 1019.5 997.4
21 9.08 З 2 50 км 8/6 600 м
[Sc Ci fib]
+10.9 +8.4 85 +10 +10 1019.8 997.7
00 10.08 З 2 50 км 3/0
[Ci fib]
+8.7 +7.6 93 +7 +7 1019.4 997.1
03 10.08 З 3 50 км 6/0 2000 м
[Ac trans Cc]
+11.2 +8.4 83 +9 +11 1018.7 996.7 +8.3
06 10.08 ЮЗ 5 50 км 8/0 2000 м
[Ac cast Cc]
+17.0 +10.1 64 +16 +19 1015.9 994.4
09 10.08 ЮЗ 6-11
{11}
50 км 8/6 600 м
[Sc Cs]
+20.4 +12.3 60 +22 +24 комфорт 1012.9 991.8
12 10.08 З 4
{11}
50 км 10/4 600 м
[Cu hum Ci]
+24.2 +14.9 56 +27 +29 жарко 1010.0 989.1
15 10.08 З 2 50 км 9/6 600 м
[Cb cap Ci]
+23.2 +15.2 61 +27 +28 душно 1009.1 988.2 +24.2
18 10.08 СЗ 2 50 км 8/4 600 м
[Sc Cs]
+20.7 +15.8 74 +25 +25 комфорт 1009.4 988.4
21 10.08 З 2 50 км ясно +17.8 +13.7 77 +18 +18 1010.0 988.7
00 11.08 З 2 50 км 6/3 600 м
[Sc Cs]
+15.3 +12.1 81 +15 +15 1011.1 989.6
03 11.08 СЗ 2 50 км 10/3 600 м
[Sc Cc]
+16.0 +12.6 80 +16 +17 1012.2 990.7 +14.8
06 11.08 СЗ 4 50 км 10/10 600 м
[Cb cap]
+17.2 +11.4 69 +17 +17 1012.8 991.4
09 11.08 СЗ 2 50 км 10/10 600 м
[Cb cap]
+19.5 +11.3 59 +21 +21 комфорт 1012.0 990.7
12 11.08 З 3 50 км 8/8 600 м
[Cu hum Cc]
+20.2 +12.0 59 +22 +23 комфорт 1011.8 990.6
15 11.08 СЗ 1 50 км 10/10 600 м
[Sc]
+18.2 +12.4 69 +20 +20 1011.1 989.8 +20.3
18 11.08 З 1 50 км 10/10 600 м
[Cb cap]
+14.0 +12.5 91 +14 +14 1010.9 989.3
21 11.08 З 1 10 км слабый ливневой дождь 10/10 600 м
[Cb cap]
+14.2 +13.7 97 +14 +14 1010.2 988.6
00 12.08 ЮВ 1 50 км {ливн. осадки} 10/10 600 м
[Cb cap]
+13.5 +13.1 97 +14 +14 1009.3 987.7
03 12.08 ЮЗ 2 50 км 10/10 600 м
[Sc]
+14.7 +14.3 97 +14 +14 1008.4 986.9 +13.3 3
06 12.08 ЮЗ 3 50 км 8/4 600 м
[Sc As trans Ci sp]
+20.9 +17.4 80 +25 +28 комфорт 1007.4 986.4
09 12.08 З 4 50 км 8/8 600 м
[Cu med, cong]
+25.5 +16.5 57 +29 +30 душно 1006.9 986.2
12 12.08 З 3
{10}
50 км 9/6 600 м
[Cb cap Ac trans]
+25.0 +16.4 59 +28 +29 жарко 1006.4 985.7
15 12.08 З 3 50 км 8/8 600 м
[Cb cap]
+24.4 +16.5 61 +28 +28 душно 1005.9 985.2 +26.1
18 12.08 ЮЗ 2 50 км {ливн. осадки} 3/3 600 м
[Sc diur, vesp]
+19.6 +16.1 80 +22 +22 комфорт 1006.4 985.3
21 12.08 ЮЗ 2 50 км 4/0 2000 м
[As trans]
+18.7 +16.4 86 +20 +20 1005.5 984.4
00 13.08 ЮЗ 3 50 км 10/0 2000 м
[Ac cast Cs]
+17.6 +15.9 90 +18 +18 1004.7 983.5
03 13.08 Ю 3 50 км 6/0
[Cs]
+18.4 +15.5 83 +19 +20 1003.6 982.5 +17.3
06 13.08 Ю 3 50 км 9/1 600 м
[Cu med, cong Ci fib]
+22.7 +15.9 65 +27 +32 душно 1002.1 981.3
09 13.08 ЮЗ 6-10
{12}
50 км 10/4 600 м
[Cu med, cong Cc]
+25.2 +11.7 43 +27 +29 жарко 1000.5 979.9
12 13.08 ЮЗ 7-13
{13}
50 км 8/3 600 м
[Cu med, cong Ci fib]
+24.5 +10.6 42 +26 +27 жарко 1000.1 979.4
15 13.08 ЮЗ 4
{13}
50 км 9/3 600 м
[Sc diur, vesp Ac trans Ci fib]
+21.1 +7.8 42 +22 +22 комфорт 1000.6 979.7 +25.3
18 13.08 ЮЗ 4 50 км 1/1 600 м
[Sc diur, vesp]
+16.8 +7.3 53 +16 +16 1002.0 980.7
21 13.08 ЮЗ 3 50 км ясно +13.9 +7.5 65 +13 +13 1002.8 981.3
00 14.08 ЮЗ 3 50 км 6/0
[Ci fib]
+11.2 +7.9 80 +9 +9 1003.5 981.8
03 14.08 ЮЗ 3 50 км 4/1 600 м
[Sc Ac As Ci fib]
+12.5 +9.2 80 +11 +12 1004.8 983.1 +10.7
06 14.08 З 4 50 км 10/10 600 м
[Sc]
+15.0 +10.8 76 +14 +14 1005.7 984.2
09 14.08 З 4 50 км 10/10 600 м
[Cu med, cong]
+16.5 +10.6 68 +16 +16 1006.5 985.1
12 14.08 ЮЗ 4 50 км 9/8 600 м
[Cb cap Cc]
+19.4 +8.7 50 +20 +21 1006.4 985.3
15 14.08 З 2 50 км в посл. час ливневой дождь 9/9
[Cb cap]
+12.6 +10.9 89 +12 +12 1008.6 987.0 +19.9 1
18 14.08 З 3 50 км {ливн. осадки} 3/3 600 м
[Sc]
+10.8 +10.4 97 +9 +9 1009.6 987.8
21 14.08 З 2 50 км ясно +9.8 +9.1 95 +8 +8 1010.2 988.2
00 15.08 ЮЗ 1 50 км 3/3 600 м
[Sc]
+8.1 +7.7 97 +7 +7 1011.0 988.9
03 15.08 ЮЗ 2 50 км 6/5 600 м
[Sc Ac trans Ci sp]
+10.2 +9.5 95 +9 +9 1011.7 989.8 +7.0 0.5
06 15.08 ЮЗ 3 50 км {туман} 10/10 600 м
[Sc]
+11.9 +11.0 94 +10 +10 1012.3 990.5
09 15.08 СЗ 2 50 км 9/9 600 м
[Cb cap]
+16.4 +11.1 71 +17 +18 1012.5 991.0

 

Местоположение метеостанции Усть-Черная (Пермский край, Россия): широта 60.47 долгота 52.63 высота над уровнем моря 183 м.

В архиве по умолчанию представлена погода в Усть-Черной за последнюю неделю. Архивные данные за месяц целиком и за предыдущие месяцы, начиная с января 2011 года, Вы можете получить, выбрав интересующий диапазон дат из раскрывающегося списка и нажав кнопку "Ввод!".


*Определитесь, кто Вы:
робот инопланетянин человек

Внимание! Время в таблицах - всемирное. Для получения местного времени необходимо прибавить поправку, которая в Усть-Черной равна 5 ч.

Смотрите также архив погоды в соседних городах и на ближайших метеорологических станциях:

Погода в Койгородке (Коми, Россия) (91 км)
Погода в Гайнах (Пермский край, Россия) (97 км)
Погода в Кирсе (Кировская область, Россия) (126 км)
Погода в Кочево (Пермский край, Россия) (141 км)
Погода в Косе (Пермский край, Россия) (143 км)
Погода в Усть-Куломе (Коми, Россия) (146 км)
Погода в Пустоши (Коми, Россия) (147 км)
Погода в Нагорске (Кировская область, Россия) (163 км)
Погода в Объячеве (Коми, Россия) (164 км)
Погода в Сыктывкаре (Коми, Россия) (167 км)

Пояснения к столбцам:

Ветер - указаны скорость ветра в м/с - средняя за 10 мин, порывы в срок и между сроками (в фигурных скобках) и направление, откуда дует ветер: С - северный, СВ - северо-восточный, В - восточный, ЮВ - юго-восточный, Ю - южный, ЮЗ - юго-западный, З - западный, СЗ - северо-западный.
Видимость - горизонтальная дальность видимости в метрах или километрах. При видимости от 1 до 10 км при отсутствии осадков обычно наблюдается дымка, при ухудшении видимости до 1 км и менее - туман. В сухую погоду видимость может ухудшаться дымом, пылью или мглою.
Явления - указаны атмосферные явления, наблюдавшиеся в срок или в последний час перед сроком; фигурными скобками обозначены явления, наблюдавшиеся между сроками (за 1-3 часа до срока); квадратными скобками обозначены град или гололедные отложения с указанием их диаметра в мм.
Облачность - указаны через наклонную черту общая и нижняя облачность в баллах и высота нижней границы облаков в метрах; квадратными скобками обозначены формы облаков: Ci - перистые, Cs - перисто-слоистые, Cc - перисто-кучевые, Ac - высококучевые, As - высокослоистые, Sc - слоисто-кучевые, Ns - слоисто-дождевые, Cu - кучевые, Cb - кучево-дождевые. Подробнее классификацию облаков см. в Атласе облаков (PDF).
T - Температура воздуха - температура, измеренная на высоте 2 м над землей.
Td - Температура точки росы - температура, при понижении до которой содержащийся в воздухе водяной пар достигнет насыщения.
f - Относительная влажность воздуха - влажноcть воздуха, измеренная на высоте 2 м над землей.
Te - Эффективная температура - температура, которую ощущает одетый по сезону человек в тени. Характеристика душности погоды. При расчете учитывается влияние влажности воздуха и скорости ветра на теплоощущения человека.
Tes - Эффективная температура на солнце - температура, которую ощущает человек, с поправкой на солнечный нагрев. Характеристика знойности погоды. Зависит от высоты солнца над горизонтом, облачности и скорости ветра. Ночью, в пасмурную погоду, а также при ветре 12 м/с и более поправка равна нулю.
P - Атмосферное давление - приведенное к уровню моря атмосферное давление.
Po - Атмосферное давление - измеренное на уровне метеостанции атмосферное давление.
Tmin - Минимальная температура - минимум температуры воздуха на высоте 2 м над землей.
Tmax - Максимальная температура - максимум температуры воздуха на высоте 2 м над землей.
R - Количество осадков - Количество выпавших осадков за период времени, мм. При наведении курсора мыши на число - период времени, за который выпало указанное количество осадков.
R24 - Количество осадков - Количество выпавших осадков за 24 часа, мм.
S - Снежный покров - Высота снежного покрова, см. При наведении курсора мыши на число - состояние снежного покрова и степень покрытия местности в баллах.